Location: Shepherdstown, WV
(39.4326°N, 77.8042°W)
Time: 10:31:00
(UTC-04:00)

Vanguard 2 Rocket - Pass Details

Date: 07 August 2021
Orbit: 556 x 3324 km, 32.9° (Epoch: 20 September)

Event Time Altitude Azimuth Distance (km) Brightness Sun altitude
Exits shadow 04:28:48 13° 184° (S) 2,989 9.1 -18.5°
Maximum altitude 04:31:33 16° 161° (SSE) 2,512 8.9 -18.2°
Drops below altitude 10° 04:35:09 10° 124° (SE) 2,552 9.4 -17.6°
Sets 04:38:13 0° 101° (ESE) 3,187 10.3 -17.2°
